Terminal Aerodrome Forecast
Issued by NWS

Home | Current Version | Previous Version | Text Only | Print | Product List | Glossary On
Versions: 1 2 3 4 5 6 7 8 9 10 11 12 13 14 15 16 17 18 19 20 21 22 23 24 25 26 27 28 29 30 31 32 33 34 35 36 37 38 39 40 41 42 43 44 45 46 47 48 49 50
000
FTUS44 KHGX 241129
TAFLBX
TAF
KLBX 241129Z 2412/2512 15003KT 5SM BR VCTS SCT015 BKN025CB
     FM241500 16006KT P6SM VCTS BKN025CB
     FM241800 16008KT P6SM VCTS BKN035CB
     FM250300 09005KT P6SM BKN250
     FM250900 VRB03KT 6SM BR SCT015 BKN025=

USA.gov is the U.S. government's official web portal to all federal, state and local government web resources and services.